Temp
8 8 8 8 8 7 7 7 7 7 7 7 7 6 7 6 6 6 6 6 6 6 6 6 6 6 6 6 6 6 6 6 6
8 8 7 7 7 7 7 7 7 7 6 6 6 6 6 6 6 6 6 6 6 6 6 6 6 6 6 6 6 6 5 5 5
7 7 7 7 7 7 7 7 7 6 6 6 6 6 6 6 6 6 5 5 5 5 5 5 5 5 6 5 5 5 5 5 5
7 7 7 7 7 7 6 6 6 6 6 6 6 6 5 5 5 5 5 5 5 5 5 5 5 5 5 5 5 5 5 5 5
7 7 7 7 6 6 6 6 6 6 6 6 5 5 5 5 5 5 5 5 5 5 5 5 5 5 5 5 5 5 5 5 5
7 7 7 6 6 6 6 6 6 6 6 6 6 5 5 5 5 5 5 5 5 5 5 5 5 5 4 4 4 4 4 4 4
7 7 6 6 6 6 6 6 6 6 6 6 6 5 5 5 5 5 5 5 5 5 5 5 5 5 5 4 4 4 4 4 4
7 7 6 6 6 6 6 6 6 6 6 6 6 5 5 5 5 5 5 5 5 5 5 5 5 4 4 4 4 4 4 4 4
7 7 7 7 6 6 7 6 6 6 6 6 6 5 6 6 5 5 5 5 5 5 5 4 4 4 4 4 4 4 3 3 3
7 7 7 7 7 7 7 7 6 6 6 6 6 6 6 6 5 5 5 5 5 5 4 4 4 4 4 4 4 3 3 3 3
7 7 7 7 7 7 7 7 7 6 6 6 6 6 6 5 5 5 5 5 4 4 4 4 4 4 3 3 3 3 3 2 2
7 7 7 7 7 7 7 7 7 6 6 6 6 6 6 5 5 5 5 4 4 4 4 4 4 4 4 3 3 3 2 2 2
7 7 7 7 7 7 7 7 6 6 6 6 6 6 5 5 5 5 4 4 4 4 4 4 4 4 3 3 3 2 2 2 2
7 7 7 7 7 7 7 7 6 6 6 6 6 5 5 5 5 4 4 4 4 4 4 4 3 3 3 2 3 2 2 2 2
7 7 7 7 7 7 7 6 6 6 6 6 5 5 5 5 4 4 4 4 4 4 3 4 3 3 3 3 3 3 2 2 1
7 7 7 7 7 7 7 6 6 6 6 6 5 5 5 5 4 4 4 4 4 4 4 4 4 3 3 2 3 3 3 3 1
6 6 6 6 6 6 6 6 5 5 5 5 5 5 4 4 4 4 4 3 4 4 3 3 3 3 3 2 2 2 2 2 2
4 4 4 5 5 5 5 5 5 4 4 4 4 4 4 4 4 4 4 4 3 3 3 3 3 2 2 2 2 2 2 1 1
4 4 4 4 3 4 3 3 4 4 4 3 3 3 3 3 4 3 3 3 3 3 3 2 2 2 2 2 2 2 2 1 1
4 4 4 3 3 3 3 2 2 2 3 3 3 2 3 3 3 3 3 3 2 3 3 3 2 2 2 2 2 2 2 1 1
Height
3196 3197 3198 3199 3201 3201 3202 3202 3203 3203 3204 3204 3204 3204 3203 3203 3203 3203 3202 3201 3201 3200 3199 3198 3197 3196 3195 3194 3193 3192 3191 3190 3189
3198 3199 3200 3202 3202 3203 3204 3204 3205 3205 3205 3205 3206 3205 3205 3205 3205 3204 3203 3203 3202 3201 3200 3199 3198 3197 3196 3195 3193 3192 3191 3190 3189
3199 3200 3201 3203 3204 3205 3206 3207 3207 3208 3208 3208 3208 3208 3207 3207 3207 3206 3205 3204 3203 3202 3201 3200 3199 3198 3197 3195 3194 3193 3192 3190 3189
3200 3202 3204 3206 3206 3207 3208 3209 3210 3210 3210 3210 3210 3210 3210 3209 3208 3207 3206 3205 3204 3203 3202 3201 3200 3199 3198 3196 3195 3193 3192 3191 3189
3202 3204 3206 3207 3208 3210 3211 3211 3211 3212 3212 3211 3211 3211 3211 3211 3210 3209 3207 3206 3205 3204 3202 3201 3200 3199 3198 3196 3195 3193 3192 3190 3189
3204 3206 3208 3210 3210 3212 3213 3213 3213 3213 3213 3212 3212 3212 3212 3211 3210 3209 3208 3206 3205 3204 3202 3201 3200 3199 3197 3196 3195 3193 3191 3190 3189
3205 3207 3209 3211 3212 3213 3213 3214 3214 3214 3213 3213 3212 3212 3211 3211 3210 3208 3207 3206 3204 3203 3202 3201 3199 3198 3196 3195 3193 3192 3190 3189 3187
3206 3209 3210 3211 3212 3213 3214 3214 3214 3214 3214 3213 3213 3212 3211 3210 3209 3208 3206 3205 3204 3202 3201 3200 3198 3197 3195 3194 3192 3190 3189 3187 3185
3207 3209 3211 3211 3212 3213 3214 3214 3214 3214 3214 3213 3212 3212 3210 3210 3208 3207 3206 3205 3203 3201 3200 3198 3197 3196 3194 3192 3190 3189 3187 3185 3184
3206 3209 3210 3211 3212 3213 3213 3214 3213 3213 3213 3212 3211 3210 3209 3208 3208 3206 3205 3204 3202 3201 3199 3197 3196 3194 3192 3190 3188 3187 3185 3183 3181
3205 3207 3209 3210 3211 3211 3212 3212 3212 3211 3211 3210 3210 3209 3208 3207 3206 3205 3204 3202 3201 3199 3197 3196 3194 3192 3189 3187 3185 3184 3182 3181 3179
3203 3205 3207 3208 3208 3209 3209 3209 3208 3208 3208 3208 3208 3207 3206 3205 3204 3203 3202 3200 3199 3196 3194 3192 3190 3188 3186 3184 3182 3181 3179 3178 3176
3200 3202 3204 3204 3205 3205 3205 3205 3205 3205 3205 3205 3205 3205 3204 3203 3201 3200 3199 3197 3196 3193 3191 3189 3187 3185 3183 3181 3179 3178 3176 3175 3173
3197 3198 3200 3200 3201 3201 3201 3201 3201 3202 3202 3202 3202 3202 3201 3199 3198 3196 3195 3193 3192 3190 3188 3185 3182 3180 3178 3177 3176 3175 3173 3172 3170
3193 3194 3195 3196 3197 3197 3197 3197 3198 3198 3199 3198 3198 3198 3197 3196 3194 3192 3190 3189 3187 3186 3183 3180 3178 3176 3174 3173 3172 3172 3171 3168 3167
3187 3188 3190 3191 3192 3192 3192 3193 3193 3193 3193 3193 3194 3194 3193 3192 3190 3188 3186 3184 3183 3181 3178 3175 3173 3172 3170 3168 3166 3166 3166 3164 3163
3182 3182 3184 3185 3186 3186 3186 3187 3187 3188 3188 3189 3188 3189 3189 3187 3186 3184 3182 3180 3178 3175 3172 3170 3167 3167 3166 3164 3162 3161 3160 3159 3157
3173 3173 3177 3178 3180 3182 3181 3182 3182 3183 3183 3183 3183 3182 3182 3181 3181 3179 3176 3174 3171 3169 3167 3165 3163 3162 3161 3159 3157 3156 3155 3154 3152
3166 3167 3167 3169 3171 3175 3174 3175 3177 3177 3177 3174 3175 3176 3176 3174 3173 3172 3170 3168 3167 3165 3163 3160 3157 3156 3154 3153 3151 3150 3149 3148 3147
3161 3162 3162 3163 3162 3163 3165 3167 3168 3167 3169 3169 3169 3167 3169 3169 3168 3165 3164 3163 3161 3159 3157 3156 3152 3151 3149 3148 3147 3145 3143 3142 3140
Wind_Speed
15 15 16 16 15 16 15 14 13 13 12 12 14 14 13 15 15 15 15 15 15 16 16 15 15 14 14 14 13 13 12 13 12
15 16 16 15 15 14 14 13 13 13 13 14 15 15 15 16 15 15 15 15 16 16 16 17 17 17 15 14 14 13 13 13 12
16 16 16 14 14 14 14 14 14 15 16 16 16 18 16 17 16 16 16 17 17 17 17 17 17 16 16 15 15 15 14 14 13
15 15 15 14 15 16 17 17 17 16 16 15 15 15 14 14 14 14 15 15 16 16 17 17 16 16 16 16 15 15 14 14 14
15 16 16 17 18 17 16 15 14 14 13 13 13 13 13 12 12 13 13 14 15 15 15 15 15 15 15 15 15 15 14 14 14
18 18 16 16 16 15 13 12 10 10 10 11 12 11 11 10 11 12 12 13 14 14 15 15 14 14 14 14 14 14 14 14 14
18 17 14 12 11 9 7 7 7 8 8 9 10 11 11 10 10 12 13 14 14 15 15 15 15 15 15 14 14 14 14 13 13
14 11 9 6 5 4 4 5 6 7 8 9 10 11 11 10 11 12 13 14 15 17 16 15 15 15 15 15 15 14 13 13 12
10 7 4 2 0 2 4 6 7 8 7 9 10 11 12 10 11 12 12 13 15 17 17 17 17 16 16 17 15 14 14 13 13
8 7 5 2 3 6 7 8 9 10 9 9 11 11 11 11 11 12 13 14 16 17 17 17 18 18 19 19 18 16 14 13 13
11 8 7 6 7 8 9 10 11 10 9 10 12 12 11 12 12 13 14 15 17 19 19 20 20 21 20 19 20 17 15 15 15
14 13 12 11 11 12 12 12 12 11 11 12 12 11 12 13 14 14 15 16 18 20 22 23 24 23 21 20 20 18 15 15 15
19 18 17 17 16 15 15 14 13 12 12 12 13 12 13 14 15 16 17 19 19 22 23 26 26 23 21 20 19 16 15 17 17
25 24 22 22 20 19 18 16 14 14 13 14 13 14 15 16 18 19 20 21 21 23 25 28 27 24 21 16 16 15 18 18 18
29 28 27 26 24 22 21 17 15 15 15 15 15 16 17 18 19 21 22 23 25 24 27 28 28 25 21 18 19 14 15 19 19
32 31 30 29 27 25 22 19 17 17 18 17 17 18 19 20 21 24 25 25 26 27 30 29 28 24 22 22 20 17 15 17 20
32 27 28 28 27 25 23 21 19 18 19 19 20 21 21 22 24 25 26 26 27 29 30 31 30 25 23 23 20 19 18 19 18
29 34 31 23 22 23 23 23 22 20 20 19 22 24 25 25 25 25 28 29 30 32 32 31 29 27 24 22 20 19 20 20 20
25 30 35 40 39 36 28 33 31 25 24 26 22 23 28 28 28 29 30 30 31 33 31 29 29 26 24 22 22 22 22 21 21
30 31 29 29 31 37 37 31 29 29 31 30 27 20 26 30 29 30 31 32 32 32 31 30 28 24 23 24 24 24 24 22 21
Wind_Direction
119 116 113 111 110 105 101 97 93 88 84 80 77 70 65 64 62 59 55 52 49 47 43 41 39 35 31 28 27 26 19 16 13
119 116 112 111 108 105 100 96 92 88 83 76 74 69 62 61 57 55 51 46 43 40 36 35 34 33 31 29 26 23 21 16 14
120 118 114 113 108 101 97 92 89 84 79 74 68 64 58 58 53 51 46 41 37 35 32 30 29 27 26 25 23 20 17 14 12
121 117 113 110 105 100 96 91 85 79 72 66 60 59 53 45 42 40 37 33 28 24 23 22 20 20 19 18 16 14 13 11 9
118 114 112 107 101 95 90 83 75 65 56 50 43 38 39 23 30 26 23 20 18 16 14 12 10 9 8 8 5 5 5 4 4
113 108 102 97 93 86 79 70 60 51 42 34 28 23 27 11 16 15 12 10 8 5 5 4 1 360 357 356 352 353 353 354 355
117 114 107 97 89 83 69 53 36 23 14 10 3 5 5 8 7 7 5 5 4 2 1 359 358 354 352 348 345 343 342 343 344
123 119 123 107 90 62 30 12 359 352 350 348 346 350 347 6 1 1 4 3 2 0 0 0 357 353 353 352 350 345 343 341 339
142 144 133 144 245 326 339 334 330 332 327 328 333 335 342 356 359 357 358 357 355 356 357 356 353 349 348 347 346 344 345 343 340
175 183 195 231 281 302 313 317 314 310 316 322 323 326 333 339 348 349 349 346 346 347 349 347 345 339 336 336 341 335 334 335 335
208 222 241 261 279 290 297 302 301 303 307 308 314 319 326 328 333 339 340 339 338 337 339 337 335 333 330 328 332 331 330 329 328
233 236 248 262 273 281 289 293 298 299 301 302 307 308 316 320 322 325 331 331 330 333 334 333 331 333 327 326 328 326 322 325 324
245 253 256 262 269 278 285 286 285 284 289 290 296 299 305 311 315 317 319 322 326 328 329 331 328 324 321 318 321 322 315 316 317
253 257 263 268 273 277 279 274 278 280 281 284 288 293 300 306 309 311 315 320 322 323 324 326 324 324 321 318 322 309 305 306 309
255 259 262 264 268 271 268 263 269 274 277 280 283 289 296 301 303 308 311 317 317 317 319 321 322 321 317 317 316 301 290 294 295
255 258 262 265 267 265 259 253 259 264 269 275 278 283 295 301 302 304 306 310 310 314 319 320 319 317 310 313 313 307 288 282 283
255 258 261 262 261 255 247 246 250 258 266 273 282 287 291 299 300 299 299 302 306 313 316 316 314 311 306 308 306 301 296 293 287
249 246 254 261 253 248 247 249 249 252 260 270 280 287 291 296 296 297 300 305 310 311 313 312 308 309 306 304 301 300 298 296 290
242 269 264 263 263 260 248 252 250 254 260 262 268 282 289 296 299 301 301 302 304 304 306 306 306 306 304 300 300 301 301 298 293
246 249 249 245 250 253 250 244 252 253 253 262 260 262 285 290 293 292 293 297 298 300 301 302 300 300 299 299 298 300 299 298 294